Location: Unspecified
(36.1222°N, 0.0000°E)
Time: 01:35:08
(UTC+00:00)

Envisat - Visible Passes

Search period start: 24 May 2019 00:00
Search period end: 03 June 2019 00:00
Orbit: 764 x 766 km, 98.2° (Epoch: 23 May)

Date Brightness Start Highest point End Pass type
(mag) Time Alt. Az. Time Alt. Az. Time Alt. Az.
24 May 5.6 19:40:21 10° SW 19:43:50 19° W 19:47:21 10° NW visible
29 May 5.9 19:56:02 10° WSW 19:58:16 13° W 20:00:31 10° WNW visible
01 Jun 5.7 19:43:43 10° SW 19:46:56 17° W 19:50:10 10° NW visible
